TimeEDT,TemperatureF,Dew PointF,Humidity,Sea Level PressureIn,VisibilityMPH,Wind Direction,Wind SpeedMPH,Gust SpeedMPH,PrecipitationIn,Events,Conditions,WindDirDegrees,DateUTC
12:53 AM,18.0,10.9,74,30.07,10.0,Calm,Calm,-,N/A,,Overcast,0,2013-03-17 04:53:00
1:53 AM,19.9,12.0,71,30.05,10.0,WSW,6.9,-,N/A,,Overcast,250,2013-03-17 05:53:00
2:13 AM,19.4,15.8,86,30.01,3.0,West,8.1,-,0.00,Snow,Light Snow,270,2013-03-17 06:13:00
2:32 AM,19.4,15.8,86,30.01,6.0,WNW,9.2,-,0.00,Snow,Light Snow,290,2013-03-17 06:32:00
2:53 AM,19.9,16.0,85,30.09,8.0,WNW,9.2,-,0.00,Snow,Light Snow,290,2013-03-17 06:53:00
3:53 AM,21.0,15.1,78,30.12,10.0,NNW,9.2,-,0.00,,Overcast,340,2013-03-17 07:53:00
4:53 AM,19.9,10.9,68,30.14,9.0,NNW,10.4,20.7,0.00,,Overcast,340,2013-03-17 08:53:00
5:53 AM,19.0,8.1,62,30.17,10.0,North,12.7,20.7,N/A,,Overcast,360,2013-03-17 09:53:00
6:53 AM,18.0,8.1,65,30.21,10.0,NNE,10.4,-,N/A,,Overcast,20,2013-03-17 10:53:00
7:53 AM,16.0,7.0,68,30.24,10.0,NNE,12.7,-,N/A,,Overcast,30,2013-03-17 11:53:00
8:53 AM,16.0,5.0,62,30.27,10.0,NNE,9.2,-,N/A,,Overcast,30,2013-03-17 12:53:00
9:53 AM,17.1,7.0,65,30.29,10.0,ENE,11.5,-,N/A,,Overcast,60,2013-03-17 13:53:00
10:53 AM,19.0,6.1,57,30.32,10.0,ENE,8.1,-,N/A,,Overcast,60,2013-03-17 14:53:00
11:33 AM,19.4,6.8,58,30.25,10.0,NE,6.9,-,N/A,,Scattered Clouds,50,2013-03-17 15:33:00
11:53 AM,19.9,6.1,55,30.32,10.0,East,8.1,-,N/A,,Scattered Clouds,80,2013-03-17 15:53:00
12:53 PM,21.0,7.0,55,30.33,10.0,West,6.9,-,N/A,,Clear,260,2013-03-17 16:53:00
1:53 PM,21.9,7.0,53,30.32,10.0,West,8.1,-,N/A,,Clear,260,2013-03-17 17:53:00
2:53 PM,25.0,7.0,46,30.30,10.0,West,5.8,-,N/A,,Clear,260,2013-03-17 18:53:00
3:53 PM,28.0,7.0,41,30.26,10.0,West,3.5,-,N/A,,Clear,260,2013-03-17 19:53:00
4:53 PM,28.0,5.0,38,30.25,10.0,ENE,6.9,-,N/A,,Clear,70,2013-03-17 20:53:00
5:53 PM,28.0,5.0,38,30.26,10.0,Variable,6.9,-,N/A,,Clear,0,2013-03-17 21:53:00
6:53 PM,27.0,5.0,39,30.26,10.0,East,10.4,-,N/A,,Clear,90,2013-03-17 22:53:00
7:53 PM,24.1,7.0,48,30.27,10.0,SE,6.9,-,N/A,,Clear,140,2013-03-17 23:53:00
8:53 PM,21.0,8.1,57,30.27,10.0,ESE,5.8,-,N/A,,Clear,110,2013-03-18 00:53:00
9:53 PM,19.0,9.0,65,30.27,10.0,SE,9.2,-,N/A,,Clear,130,2013-03-18 01:53:00
10:53 PM,17.1,10.0,74,30.27,10.0,ESE,8.1,-,N/A,,Clear,110,2013-03-18 02:53:00
11:53 PM,16.0,9.0,74,30.25,10.0,ESE,9.2,-,N/A,,Clear,110,2013-03-18 03:53:00